Time,TemperatureF,DewpointF,PressureIn,WindDirection,WindDirectionDegrees,WindSpeedMPH,WindSpeedGustMPH,Humidity,HourlyPrecipIn,Conditions,Clouds,dailyrainin,SoftwareType,DateUTC
2013-06-09 00:02:00,57.0,50.0,29.80,ESE,107,3.0,7.0,76,0.01,,,0.11,,2013-06-09 05:02:00,
2013-06-09 00:12:00,57.0,50.0,29.80,ESE,107,3.0,7.0,76,0.01,,,0.11,,2013-06-09 05:12:00,
2013-06-09 00:22:00,57.0,50.0,29.80,East,94,4.0,9.0,77,0.02,,,0.12,,2013-06-09 05:22:00,
2013-06-09 00:32:00,57.0,50.0,29.80,East,92,2.0,7.0,77,0.02,,,0.12,,2013-06-09 05:32:00,
2013-06-09 00:42:00,57.0,50.0,29.80,East,92,2.0,7.0,77,0.02,,,0.12,,2013-06-09 05:42:00,
2013-06-09 00:52:00,57.0,50.0,29.80,ESE,103,3.0,7.0,77,0.02,,,0.12,,2013-06-09 05:52:00,
2013-06-09 01:02:00,57.0,50.0,29.80,East,96,6.0,9.0,76,0.02,,,0.13,,2013-06-09 06:02:00,
2013-06-09 01:12:00,57.0,50.0,29.80,East,96,6.0,9.0,76,0.02,,,0.13,,2013-06-09 06:12:00,
2013-06-09 01:22:00,57.0,49.0,29.80,East,87,7.0,10.0,75,0.01,,,0.13,,2013-06-09 06:22:00,
2013-06-09 01:32:00,56.0,49.0,29.80,East,90,8.0,15.0,76,0.03,,,0.15,,2013-06-09 06:32:00,
2013-06-09 01:42:00,56.0,49.0,29.80,East,90,8.0,15.0,76,0.03,,,0.15,,2013-06-09 06:42:00,
2013-06-09 01:52:00,56.0,49.0,29.79,ENE,78,7.0,10.0,77,0.06,,,0.18,,2013-06-09 06:52:00,
2013-06-09 02:02:00,56.0,49.0,29.79,ENE,77,8.0,14.0,77,0.07,,,0.20,,2013-06-09 07:02:00,
2013-06-09 02:12:00,56.0,49.0,29.79,ENE,77,8.0,14.0,77,0.07,,,0.20,,2013-06-09 07:12:00,
2013-06-09 02:22:00,56.0,49.0,29.79,East,100,8.0,13.0,77,0.10,,,0.23,,2013-06-09 07:22:00,
2013-06-09 02:32:00,56.0,49.0,29.78,East,94,9.0,13.0,78,0.11,,,0.26,,2013-06-09 07:32:00,
2013-06-09 02:42:00,56.0,49.0,29.78,East,94,9.0,13.0,78,0.11,,,0.26,,2013-06-09 07:42:00,
2013-06-09 02:52:00,56.0,49.0,29.78,ENE,61,8.0,13.0,77,0.10,,,0.28,,2013-06-09 07:52:00,
2013-06-09 03:02:00,56.0,49.0,29.78,East,80,9.0,17.0,77,0.09,,,0.28,,2013-06-09 08:02:00,
2013-06-09 03:12:00,56.0,49.0,29.78,East,80,9.0,17.0,77,0.09,,,0.28,,2013-06-09 08:12:00,
2013-06-09 03:22:00,56.0,49.0,29.77,ENE,69,8.0,14.0,78,0.08,,,0.31,,2013-06-09 08:22:00,
2013-06-09 03:32:00,56.0,49.0,29.77,ENE,73,9.0,13.0,78,0.06,,,0.32,,2013-06-09 08:32:00,
2013-06-09 03:42:00,56.0,49.0,29.77,ENE,73,9.0,13.0,78,0.06,,,0.32,,2013-06-09 08:42:00,
2013-06-09 03:53:00,56.0,49.0,29.77,ENE,76,9.0,13.0,78,0.06,,,0.34,,2013-06-09 08:53:00,
2013-06-09 04:02:00,56.0,49.0,29.76,ENE,70,9.0,13.0,78,0.06,,,0.35,,2013-06-09 09:02:00,
2013-06-09 04:12:00,56.0,49.0,29.76,ENE,70,9.0,13.0,78,0.06,,,0.35,,2013-06-09 09:12:00,
2013-06-09 04:22:00,56.0,49.0,29.76,ENE,71,8.0,13.0,78,0.05,,,0.36,,2013-06-09 09:22:00,
2013-06-09 04:33:00,56.0,49.0,29.76,ENE,70,9.0,13.0,78,0.06,,,0.38,,2013-06-09 09:33:00,
2013-06-09 04:43:00,56.0,49.0,29.76,ENE,70,9.0,13.0,78,0.06,,,0.38,,2013-06-09 09:43:00,
2013-06-09 04:52:00,56.0,50.0,29.75,ENE,74,8.0,12.0,79,0.07,,,0.41,,2013-06-09 09:52:00,
2013-06-09 05:03:00,56.0,50.0,29.75,ENE,70,8.0,12.0,79,0.09,,,0.44,,2013-06-09 10:03:00,
2013-06-09 05:12:00,56.0,50.0,29.75,ENE,70,8.0,12.0,79,0.09,,,0.44,,2013-06-09 10:12:00,
2013-06-09 05:23:00,56.0,50.0,29.75,ENE,70,8.0,13.0,79,0.11,,,0.47,,2013-06-09 10:23:00,
2013-06-09 05:32:00,56.0,50.0,29.75,ENE,77,9.0,13.0,79,0.12,,,0.50,,2013-06-09 10:32:00,
2013-06-09 05:43:00,56.0,50.0,29.75,ENE,77,9.0,13.0,79,0.12,,,0.50,,2013-06-09 10:43:00,
2013-06-09 05:52:00,56.0,50.0,29.75,NE,50,8.0,13.0,79,0.12,,,0.53,,2013-06-09 10:52:00,
2013-06-09 06:02:00,56.0,50.0,29.75,ENE,74,8.0,12.0,79,0.11,,,0.55,,2013-06-09 11:02:00,
2013-06-09 06:12:00,56.0,50.0,29.75,ENE,74,8.0,12.0,79,0.11,,,0.55,,2013-06-09 11:12:00,
2013-06-09 06:22:00,56.0,50.0,29.74,ENE,72,11.0,15.0,79,0.09,,,0.56,,2013-06-09 11:22:00,
2013-06-09 06:32:00,56.0,50.0,29.74,ENE,76,9.0,14.0,79,0.09,,,0.59,,2013-06-09 11:32:00,
2013-06-09 06:42:00,56.0,50.0,29.74,ENE,76,9.0,14.0,79,0.09,,,0.59,,2013-06-09 11:42:00,
2013-06-09 06:52:00,56.0,50.0,29.74,ENE,66,10.0,14.0,79,0.07,,,0.60,,2013-06-09 11:52:00,
2013-06-09 07:02:00,56.0,50.0,29.74,ENE,61,9.0,13.0,79,0.07,,,0.62,,2013-06-09 12:02:00,
2013-06-09 07:12:00,56.0,50.0,29.74,ENE,61,9.0,13.0,79,0.07,,,0.62,,2013-06-09 12:12:00,
2013-06-09 07:22:00,56.0,50.0,29.74,ENE,67,8.0,13.0,79,0.07,,,0.64,,2013-06-09 12:22:00,
2013-06-09 07:32:00,56.0,50.0,29.75,ENE,69,9.0,12.0,79,0.07,,,0.66,,2013-06-09 12:32:00,
2013-06-09 07:42:00,56.0,50.0,29.75,ENE,69,9.0,12.0,79,0.07,,,0.66,,2013-06-09 12:42:00,
2013-06-09 07:52:00,56.0,50.0,29.75,NE,51,8.0,14.0,79,0.09,,,0.69,,2013-06-09 12:52:00,
2013-06-09 08:02:00,56.0,50.0,29.75,ENE,69,9.0,14.0,79,0.10,,,0.72,,2013-06-09 13:02:00,
2013-06-09 08:12:00,56.0,50.0,29.75,ENE,69,9.0,14.0,79,0.10,,,0.72,,2013-06-09 13:12:00,
2013-06-09 08:22:00,56.0,50.0,29.75,ENE,67,9.0,14.0,79,0.10,,,0.74,,2013-06-09 13:22:00,
2013-06-09 08:32:00,56.0,50.0,29.75,ENE,68,8.0,11.0,79,0.10,,,0.76,,2013-06-09 13:32:00,
2013-06-09 08:42:00,56.0,50.0,29.75,ENE,68,8.0,11.0,79,0.10,,,0.76,,2013-06-09 13:42:00,
2013-06-09 08:52:00,56.0,50.0,29.75,ENE,68,9.0,14.0,79,0.09,,,0.78,,2013-06-09 13:52:00,
2013-06-09 09:02:00,57.0,51.0,29.75,ENE,73,9.0,14.0,79,0.08,,,0.80,,2013-06-09 14:02:00,
2013-06-09 09:12:00,57.0,51.0,29.75,ENE,73,9.0,14.0,79,0.08,,,0.80,,2013-06-09 14:12:00,
2013-06-09 09:22:00,57.0,51.0,29.75,ENE,68,10.0,14.0,79,0.06,,,0.80,,2013-06-09 14:22:00,
2013-06-09 09:32:00,57.0,51.0,29.76,ENE,76,8.0,15.0,79,0.06,,,0.82,,2013-06-09 14:32:00,
2013-06-09 09:42:00,57.0,51.0,29.76,ENE,76,8.0,15.0,79,0.06,,,0.82,,2013-06-09 14:42:00,
2013-06-09 09:52:00,57.0,51.0,29.76,NNW,344,10.0,17.0,79,0.05,,,0.83,,2013-06-09 14:52:00,
2013-06-09 10:02:00,57.0,51.0,29.76,NE,51,7.0,13.0,79,0.05,,,0.85,,2013-06-09 15:02:00,
2013-06-09 10:12:00,57.0,51.0,29.76,NE,51,7.0,13.0,79,0.05,,,0.85,,2013-06-09 15:12:00,
2013-06-09 10:22:00,57.0,51.0,29.76,ENE,76,8.0,15.0,79,0.06,,,0.86,,2013-06-09 15:22:00,
2013-06-09 10:33:00,57.0,51.0,29.76,ENE,73,8.0,13.0,79,0.06,,,0.88,,2013-06-09 15:33:00,
2013-06-09 10:43:00,57.0,51.0,29.76,ENE,73,8.0,13.0,79,0.06,,,0.88,,2013-06-09 15:43:00,
2013-06-09 10:53:00,57.0,50.0,29.77,NE,47,8.0,13.0,78,0.06,,,0.89,,2013-06-09 15:53:00,
2013-06-09 11:03:00,57.0,50.0,29.77,ENE,78,9.0,14.0,78,0.05,,,0.90,,2013-06-09 16:03:00,
2013-06-09 11:13:00,57.0,50.0,29.77,ENE,78,9.0,14.0,78,0.05,,,0.90,,2013-06-09 16:13:00,
2013-06-09 11:23:00,57.0,50.0,29.77,ENE,65,8.0,13.0,78,0.05,,,0.91,,2013-06-09 16:23:00,
2013-06-09 11:33:00,57.0,50.0,29.78,ENE,64,7.0,13.0,78,0.04,,,0.92,,2013-06-09 16:33:00,
2013-06-09 11:42:00,57.0,50.0,29.78,ENE,64,7.0,13.0,78,0.04,,,0.92,,2013-06-09 16:42:00,
2013-06-09 11:53:00,57.0,50.0,29.78,ENE,63,7.0,15.0,78,0.03,,,0.92,,2013-06-09 16:53:00,
2013-06-09 12:02:00,57.0,50.0,29.78,North,11,6.0,13.0,78,0.03,,,0.93,,2013-06-09 17:02:00,
2013-06-09 12:12:00,57.0,50.0,29.78,North,11,6.0,13.0,78,0.03,,,0.93,,2013-06-09 17:12:00,
2013-06-09 12:22:00,58.0,51.0,29.78,ENE,72,10.0,14.0,77,0.02,,,0.93,,2013-06-09 17:22:00,
2013-06-09 12:32:00,58.0,50.0,29.78,East,81,11.0,16.0,76,0.01,,,0.93,,2013-06-09 17:32:00,
2013-06-09 12:42:00,58.0,50.0,29.78,East,81,11.0,16.0,76,0.01,,,0.93,,2013-06-09 17:42:00,
2013-06-09 12:52:00,58.0,50.0,29.78,ENE,58,11.0,15.0,76,0.01,,,0.93,,2013-06-09 17:52:00,
2013-06-09 13:02:00,58.0,50.0,29.78,ENE,70,10.0,18.0,75,0.00,,,0.93,,2013-06-09 18:02:00,
2013-06-09 13:12:00,58.0,50.0,29.78,ENE,70,10.0,18.0,75,0.00,,,0.93,,2013-06-09 18:12:00,
2013-06-09 13:22:00,59.0,50.0,29.78,ENE,66,11.0,21.0,73,0.00,,,0.93,,2013-06-09 18:22:00,
2013-06-09 13:32:00,59.0,50.0,29.78,NE,47,11.0,18.0,73,0.00,,,0.93,,2013-06-09 18:32:00,
2013-06-09 13:42:00,59.0,50.0,29.78,NE,47,11.0,18.0,73,0.00,,,0.93,,2013-06-09 18:42:00,
2013-06-09 13:52:00,59.0,50.0,29.78,ENE,69,11.0,18.0,72,0.00,,,0.93,,2013-06-09 18:52:00,
2013-06-09 14:02:00,59.0,50.0,29.78,East,80,9.0,17.0,72,0.00,,,0.93,,2013-06-09 19:02:00,
2013-06-09 14:12:00,59.0,50.0,29.78,East,80,9.0,17.0,72,0.00,,,0.93,,2013-06-09 19:12:00,
2013-06-09 14:22:00,59.0,50.0,29.79,ENE,64,10.0,13.0,73,0.00,,,0.93,,2013-06-09 19:22:00,
2013-06-09 14:32:00,59.0,50.0,29.79,ENE,74,5.0,10.0,73,0.00,,,0.93,,2013-06-09 19:32:00,
2013-06-09 14:42:00,59.0,50.0,29.79,ENE,74,5.0,10.0,73,0.00,,,0.93,,2013-06-09 19:42:00,
2013-06-09 14:52:00,60.0,51.0,29.79,ENE,78,6.0,11.0,73,0.00,,,0.93,,2013-06-09 19:52:00,
2013-06-09 15:02:00,60.0,51.0,29.79,ENE,70,5.0,11.0,71,0.00,,,0.93,,2013-06-09 20:02:00,
2013-06-09 15:12:00,60.0,51.0,29.79,ENE,70,5.0,11.0,71,0.00,,,0.93,,2013-06-09 20:12:00,
2013-06-09 15:22:00,60.0,51.0,29.79,NNE,26,5.0,11.0,71,0.00,,,0.93,,2013-06-09 20:22:00,
2013-06-09 15:32:00,60.0,51.0,29.79,ENE,65,5.0,11.0,71,0.00,,,0.93,,2013-06-09 20:32:00,
2013-06-09 15:42:00,60.0,51.0,29.79,ENE,65,5.0,11.0,71,0.00,,,0.93,,2013-06-09 20:42:00,
2013-06-09 15:52:00,61.0,52.0,29.78,NE,54,3.0,10.0,71,0.00,,,0.93,,2013-06-09 20:52:00,
2013-06-09 16:02:00,60.0,51.0,29.79,ENE,72,5.0,10.0,71,0.00,,,0.93,,2013-06-09 21:02:00,
2013-06-09 16:12:00,60.0,50.0,29.80,ENE,74,6.0,10.0,70,0.00,,,0.93,,2013-06-09 21:12:00,
2013-06-09 16:22:00,60.0,50.0,29.80,ENE,74,6.0,10.0,70,0.00,,,0.93,,2013-06-09 21:22:00,
2013-06-09 16:33:00,60.0,51.0,29.80,ENE,69,7.0,11.0,71,0.00,,,0.93,,2013-06-09 21:33:00,
2013-06-09 16:43:00,60.0,51.0,29.80,ENE,69,7.0,11.0,71,0.00,,,0.93,,2013-06-09 21:43:00,
2013-06-09 16:53:00,60.0,50.0,29.79,NE,53,8.0,10.0,69,0.00,,,0.93,,2013-06-09 21:53:00,
2013-06-09 17:02:00,60.0,50.0,29.79,NE,42,2.0,5.0,70,0.00,,,0.93,,2013-06-09 22:02:00,
2013-06-09 17:13:00,60.0,50.0,29.79,NE,42,2.0,5.0,70,0.00,,,0.93,,2013-06-09 22:13:00,
2013-06-09 17:23:00,61.0,50.0,29.79,NW,317,3.0,5.0,68,0.00,,,0.93,,2013-06-09 22:23:00,
2013-06-09 17:33:00,61.0,50.0,29.80,NNE,24,0.0,4.0,68,0.00,,,0.93,,2013-06-09 22:33:00,
2013-06-09 17:42:00,61.0,50.0,29.80,NNE,24,0.0,4.0,68,0.00,,,0.93,,2013-06-09 22:42:00,
2013-06-09 17:52:00,62.0,51.0,29.80,NNE,19,1.0,5.0,67,0.00,,,0.89,,2013-06-09 22:52:00,
2013-06-09 18:02:00,62.0,51.0,29.80,East,79,5.0,9.0,67,0.00,,,0.89,,2013-06-09 23:02:00,
2013-06-09 18:12:00,62.0,51.0,29.80,North,355,2.0,8.0,67,0.00,,,0.89,,2013-06-09 23:12:00,
2013-06-09 18:22:00,62.0,51.0,29.80,North,355,2.0,8.0,67,0.00,,,0.89,,2013-06-09 23:22:00,
2013-06-09 18:32:00,62.0,51.0,29.80,NE,43,4.0,8.0,68,0.00,,,0.89,,2013-06-09 23:32:00,
2013-06-09 18:42:00,62.0,51.0,29.80,NE,43,4.0,8.0,68,0.00,,,0.89,,2013-06-09 23:42:00,
2013-06-09 18:52:00,62.0,51.0,29.80,NE,48,2.0,6.0,66,0.00,,,0.85,,2013-06-09 23:52:00,
2013-06-09 19:02:00,62.0,51.0,29.80,NE,43,1.0,8.0,67,0.00,,,0.85,,2013-06-10 00:02:00,
2013-06-09 19:12:00,62.0,51.0,29.80,NE,43,1.0,8.0,67,0.00,,,0.85,,2013-06-10 00:12:00,
2013-06-09 19:22:00,62.0,51.0,29.81,North,349,2.0,6.0,67,0.00,,,0.85,,2013-06-10 00:22:00,
2013-06-09 19:32:00,61.0,50.0,29.81,NE,35,1.0,4.0,68,0.00,,,0.85,,2013-06-10 00:32:00,
2013-06-09 19:42:00,61.0,50.0,29.81,NE,35,1.0,4.0,68,0.00,,,0.85,,2013-06-10 00:42:00,
2013-06-09 19:52:00,61.0,50.0,29.81,North,349,1.0,5.0,68,0.00,,,0.83,,2013-06-10 00:52:00,
2013-06-09 20:02:00,61.0,50.0,29.81,North,5,1.0,5.0,68,0.00,,,0.83,,2013-06-10 01:02:00,
2013-06-09 20:12:00,61.0,50.0,29.81,North,5,1.0,5.0,68,0.00,,,0.83,,2013-06-10 01:12:00,
2013-06-09 20:22:00,61.0,51.0,29.81,NE,42,2.0,5.0,69,0.00,,,0.83,,2013-06-10 01:22:00,
2013-06-09 20:32:00,61.0,51.0,29.81,NE,45,1.0,4.0,70,0.00,,,0.83,,2013-06-10 01:32:00,
2013-06-09 20:42:00,61.0,51.0,29.81,NE,45,1.0,4.0,70,0.00,,,0.83,,2013-06-10 01:42:00,
2013-06-09 20:52:00,60.0,50.0,29.81,NE,37,1.0,5.0,70,0.00,,,0.83,,2013-06-10 01:52:00,
2013-06-09 21:02:00,60.0,50.0,29.81,ENE,75,2.0,4.0,70,0.00,,,0.83,,2013-06-10 02:02:00,
2013-06-09 21:12:00,60.0,50.0,29.81,ENE,75,2.0,4.0,70,0.00,,,0.83,,2013-06-10 02:12:00,
2013-06-09 21:22:00,60.0,51.0,29.81,ENE,57,2.0,4.0,71,0.00,,,0.83,,2013-06-10 02:22:00,
2013-06-09 21:32:00,60.0,51.0,29.81,ENE,57,0.0,4.0,72,0.00,,,0.83,,2013-06-10 02:32:00,
2013-06-09 21:42:00,60.0,51.0,29.81,ENE,57,0.0,4.0,72,0.00,,,0.83,,2013-06-10 02:42:00,
2013-06-09 21:52:00,59.0,50.0,29.81,ENE,57,0.0,1.0,73,0.00,,,0.83,,2013-06-10 02:52:00,
2013-06-09 22:02:00,58.0,50.0,29.82,ENE,57,0.0,1.0,74,0.00,,,0.83,,2013-06-10 03:02:00,
2013-06-09 22:12:00,58.0,50.0,29.82,ENE,57,0.0,1.0,74,0.00,,,0.83,,2013-06-10 03:12:00,
2013-06-09 22:22:00,58.0,50.0,29.83,NE,56,0.0,1.0,75,0.00,,,0.83,,2013-06-10 03:22:00,
2013-06-09 22:33:00,57.0,50.0,29.83,NE,56,0.0,0.0,76,0.00,,,0.83,,2013-06-10 03:33:00,
2013-06-09 22:43:00,57.0,50.0,29.83,NE,56,0.0,0.0,76,0.00,,,0.83,,2013-06-10 03:43:00,
2013-06-09 22:53:00,57.0,50.0,29.84,NE,56,0.0,0.0,77,0.00,,,0.83,,2013-06-10 03:53:00,
2013-06-09 23:03:00,57.0,50.0,29.84,NE,56,0.0,0.0,77,0.00,,,0.83,,2013-06-10 04:03:00,
2013-06-09 23:12:00,57.0,50.0,29.84,NE,56,0.0,0.0,77,0.00,,,0.83,,2013-06-10 04:12:00,
2013-06-09 23:23:00,57.0,50.0,29.84,NE,56,0.0,0.0,77,0.00,,,0.83,,2013-06-10 04:23:00,
2013-06-09 23:33:00,56.0,49.0,29.83,NE,56,0.0,1.0,77,0.00,,,0.83,,2013-06-10 04:33:00,
2013-06-09 23:42:00,56.0,49.0,29.83,NE,56,0.0,1.0,77,0.00,,,0.83,,2013-06-10 04:42:00,
2013-06-09 23:52:00,56.0,49.0,29.83,NE,56,0.0,1.0,78,0.00,,,0.83,,2013-06-10 04:52:00,